Domov               UVHVVR             MKGP            O straneh              
ZDRAVSTVENO VARSTVO RASTLIN
  MREŽA AGROMET. POSTAJ
 ► PROGNOSTIČNA OBVESTILA
AGROMETEOROLOŠKI PODATKI -
ARSO
OBVLADOVANJE TVEGANJ ZARADI
NEUGODNIH VREMENSKIH RAZMER
  ► NARAVNE NESREČE
  ► SUŠA/MOČA
  ► NAMAKANJE
  ► ŽLED (gozdarstvo)
KARTOGRAFSKI PRIKAZI
SPLETNE POVEZAVE
PROJEKTI IN PUBLIKACIJE

AGROMETEOROLOŠKA MREŽA: VREMENSKE POSTAJE IN FENOLOŠKA OPAZOVANJA

Pregled podatkov za lokacijo Gabernik-Rogaška, meteorološka postaja 37800

Pregled senzorjev na lokaciji

ID Ime Zadnja
vrednost
Datum
zadnje
spremembe
Tip
senzorja
1828 Omočenost lista (U) 0 U 25.2.2018 11:30 A730WET
1829 Padavine (mm) 0 mm 25.2.2018 11:30 Rain-O-Matic
1827 Relativna vlaga 2 m (% RH) 64,37 % RH 25.2.2018 11:30 50YA
1826 Temperatura 2 m (°C) -8,89 °C 25.2.2018 11:30 50YA

Pregled podatkov zadnjih 24 ur

Zap.
št.
Datum in čas Gabernik-Rogaška
Omočenost
lista
Padavine Relativna
vlaga
2
m
Temperatura
2
m
1 25.2.2018 12:30
2 25.2.2018 12:00
3 25.2.2018 11:30 0 0 64,4 -8,9
4 25.2.2018 11:00 0 0 65,6 -9,2
5 25.2.2018 10:30 0 0 66,6 -9,3
6 25.2.2018 10:00 0 0 69,4 -9,7
7 25.2.2018 09:30 0 0 70,6 -9,9
8 25.2.2018 09:00 0 0 69,5 -9,9
9 25.2.2018 08:30 0 0 68,8 -9,9
10 25.2.2018 08:00 0 0 68,9 -9,9
11 25.2.2018 07:30 0 0 69,9 -9,9
12 25.2.2018 07:00 0 0 69,6 -9,8
13 25.2.2018 06:30 0 0 68,8 -9,6
14 25.2.2018 06:00 0 0 67,6 -9,4
15 25.2.2018 05:30 0 0 66,8 -9
16 25.2.2018 05:00 0 0 70,1 -8,6
17 25.2.2018 04:30 0 0 72,8 -8,2
18 25.2.2018 04:00 0 0 71,4 -8
19 25.2.2018 03:30 0 0 68,9 -7,6
20 25.2.2018 03:00 0 0 67 -7,4
21 25.2.2018 02:30 0 0 66,9 -7,3
22 25.2.2018 02:00 0 0 66,5 -7,2
23 25.2.2018 01:30 0 0 64,2 -6,8
24 25.2.2018 01:00 0 0 61,8 -6,3
25 25.2.2018 00:30 0 0 60 -5,9
26 25.2.2018 00:00 0 0 58,6 -5,6
27 24.2.2018 23:30 0 0 59,5 -5,6
28 24.2.2018 23:00 0 0 60,7 -5,5
29 24.2.2018 22:30 0 0 66,9 -5,4
30 24.2.2018 22:00 0 0 72,1 -5,2
31 24.2.2018 21:30 0 0 72,5 -5
32 24.2.2018 21:00 0 0 70,5 -4,9
33 24.2.2018 20:30 0 0 68,2 -4,7
34 24.2.2018 20:00 0 0 68 -4,5
35 24.2.2018 19:30 0 0 67,1 -4,2
36 24.2.2018 19:00 0 0 67,4 -3,9
37 24.2.2018 18:30 0 0 71,4 -3,7
38 24.2.2018 18:00 0 0 66,1 -3,3
39 24.2.2018 17:30 0 0 63,7 -3
40 24.2.2018 17:00 2 0 65,5 -2,8
41 24.2.2018 16:30 3 0 66,1 -2,8
42 24.2.2018 16:00 6 0 68,9 -2,9
43 24.2.2018 15:30 9 0 67,3 -2,9
44 24.2.2018 15:00 10 0 72,1 -2,5
45 24.2.2018 14:30 10 0 75,3 -2,5
46 24.2.2018 14:00 10 0 75,1 -2,7
47 24.2.2018 13:30 10 0 74,8 -2,8
48 24.2.2018 13:00 10 0 75,8 -2,8
© 2011 Ministrstvo za kmetijstvo, gozdarstvo in prehrano. Vse pravice pridržane.